GW4301 Weather Reports


Display with metric or nautical units.
time (UTC)temp
F
wind
direction
speed
MPH
gust
MPH
rain 1hr
in
rain 24hr
in
rain mn
in
humidity
%
barometer
mb
20260510220036 71 0 0.0 8.0 0.00 0.00 0.00 27 1024.7
20260510214543 71 0 0.0 11.0 0.00 0.00 0.00 26 1024.6
20260510213039 71 0 0.0 4.0 0.00 0.00 0.00 22 1024.5
20260510211535 67 98 0.0 10.0 0.00 0.00 0.00 26 1024.6
20260510210037 69 0 0.0 10.0 0.00 0.00 0.00 26 1024.7
20260510204535 61 0 0.0 4.0 0.00 0.00 0.00 36 1025.2
20260510203034 61 0 0.0 2.0 0.00 0.00 0.00 41 1025.8
20260510201539 63 0 0.0 9.0 0.00 0.00 0.00 36 1025.7
20260510200036 64 0 0.0 10.0 0.00 0.00 0.00 34 1025.2
20260510194537 68 0 0.0 7.0 0.00 0.00 0.00 28 1024.8
20260510193037 72 101 0.0 6.0 0.00 0.00 0.00 18 1024.7
20260510191539 72 0 0.0 9.0 0.00 0.00 0.00 19 1024.7
20260510190048 70 0 0.0 6.0 0.00 0.00 0.00 19 1024.9
20260510184547 69 0 0.0 6.0 0.00 0.00 0.00 21 1024.8
20260510183035 69 0 0.0 8.0 0.00 0.00 0.00 21 1025.0
20260510181551 70 0 0.0 3.0 0.00 0.00 0.00 22 1024.9
20260510180046 68 0 0.0 6.0 0.00 0.00 0.00 24 1025.1
20260510174540 66 0 0.0 8.0 0.00 0.00 0.00 25 1025.0
20260510173037 66 0 0.0 9.0 0.00 0.00 0.00 26 1025.1
20260510171550 65 0 0.0 6.0 0.00 0.00 0.00 28 1025.2
20260510170035 65 0 0.0 1.0 0.00 0.00 0.00 27 1025.1
20260510164541 65 0 0.0 6.0 0.00 0.00 0.00 29 1025.0
20260510163039 65 0 0.0 4.0 0.00 0.00 0.00 28 1024.9
20260510161536 63 0 0.0 1.0 0.00 0.00 0.00 29 1024.7
20260510160043 64 0 0.0 4.0 0.00 0.00 0.00 29 1024.7
20260510154600 64 0 0.0 1.0 0.00 0.00 0.00 27 1024.7
20260510153048 63 0 0.0 2.0 0.00 0.00 0.00 27 1024.6
20260510151536 62 0 0.0 4.0 0.00 0.00 0.00 28 1024.5
20260510150036 61 0 0.0 0.0 0.00 0.00 0.00 29 1024.2
20260510144548 60 0 0.0 0.0 0.00 0.00 0.00 31 1024.3
20260510143032 59 0 0.0 2.0 0.00 0.00 0.00 32 1024.2
20260510141545 57 0 0.0 7.0 0.00 0.00 0.00 34 1024.1
20260510140038 55 0 0.0 0.0 0.00 0.00 0.00 37 1023.9
20260510134535 54 0 0.0 0.0 0.00 0.00 0.00 38 1023.8
20260510133034 54 0 0.0 0.0 0.00 0.00 0.00 38 1023.8
20260510131536 54 0 0.0 0.0 0.00 0.00 0.00 37 1023.6
20260510130035 54 0 0.0 0.0 0.00 0.00 0.00 37 1023.2
20260510124542 54 0 0.0 0.0 0.00 0.00 0.00 36 1023.0
20260510123036 0 0.0 0.0 0.00 0.00 0.00 1022.9
20260510121535 0 0.0 0.0 0.00 0.00 0.00 1022.8
20260510120034 0 0.0 0.0 0.00 0.00 0.00 1022.7
20260510114537 0 0.0 0.0 0.00 0.00 0.00 1022.7
20260510113036 57 0.0 0.0 0.00 0.00 0.00 30 1022.5
20260510111543 57 0 0.0 4.0 0.00 0.00 0.00 30 1022.5
20260510110037 58 0 0.0 6.0 0.00 0.00 0.00 27 1022.3
20260510104550 56 0 0.0 0.0 0.00 0.00 0.00 27 1022.2
20260510103043 55 0 0.0 0.0 0.00 0.00 0.00 29 1022.2
20260510101539 56 0 0.0 0.0 0.00 0.00 0.00 28 1022.0
20260510100040 56 0 0.0 0.0 0.00 0.00 0.00 27 1021.8
20260510094536 57 0 0.0 0.0 0.00 0.00 0.00 26 1021.8
20260510093036 57 0 0.0 0.0 0.00 0.00 0.00 26 1021.4
20260510091540 58 0 0.0 0.0 0.00 0.00 0.00 25 1020.9
20260510090040 58 0 0.0 0.0 0.00 0.00 0.00 26 1020.7
20260510084547 58 0 0.0 0.0 0.00 0.00 0.00 26 1020.6
20260510083042 58 0 0.0 0.0 0.00 0.00 0.00 25 1020.5
20260510081537 58 0 0.0 0.0 0.00 0.00 0.00 25 1020.6
20260510080040 58 0 0.0 0.0 0.00 0.00 0.00 25 1020.6
20260510074544 57 0 0.0 0.0 0.00 0.00 0.00 26 1020.6
20260510073047 57 0 0.0 0.0 0.00 0.00 0.00 26 1020.6
20260510071536 58 0 0.0 0.0 0.00 0.00 0.00 25 1020.6
20260510070038 58 0 0.0 0.0 0.00 0.00 0.00 24 1020.5
20260510064539 59 0 0.0 0.0 0.00 0.00 0.00 24 1020.4
20260510063037 60 0 0.0 0.0 0.00 0.00 0.00 23 1020.6
20260510061545 61 0 0.0 1.0 0.00 0.00 0.00 22 1020.3
20260510060042 59 0 0.0 0.0 0.00 0.00 0.00 23 1020.3
20260510054535 59 0 0.0 0.0 0.00 0.00 0.00 22 1020.3
20260510053049 60 0 0.0 0.0 0.00 0.00 0.00 21 1020.3
20260510051541 61 0 0.0 0.0 0.00 0.00 0.00 20 1020.3
20260510050038 63 0 0.0 0.0 0.00 0.00 0.00 19 1020.2
20260510044536 63 0 0.0 0.0 0.00 0.00 0.00 18 1020.2
20260510043035 63 0 0.0 0.0 0.00 0.00 0.00 18 1020.3
20260510041540 63 0 0.0 0.0 0.00 0.00 0.00 18 1020.2
20260510040040 62 0 0.0 0.0 0.00 0.00 0.00 17 1020.1
20260510034535 63 0 0.0 0.0 0.00 0.00 0.00 15 1020.0
20260510033034 64 0 0.0 0.0 0.00 0.00 0.00 14 1019.8
20260510031542 65 0 0.0 0.0 0.00 0.00 0.00 12 1019.6
20260510030041 66 0 0.0 0.0 0.00 0.00 0.00 12 1019.3
20260510024539 67 0 0.0 0.0 0.00 0.00 0.00 11 1018.9
20260510023042 68 0 0.0 0.0 0.00 0.00 0.00 12 1018.7
20260510021537 69 0 0.0 0.0 0.00 0.00 0.00 11 1018.4
20260510020035 70 0 0.0 2.0 0.00 0.00 0.00 10 1018.4
20260510014545 72 0 0.0 3.0 0.00 0.00 0.00 10 1018.2
20260510013047 73 0 0.0 11.0 0.00 0.00 0.00 9 1018.0
20260510011535 73 0 0.0 6.0 0.00 0.00 0.00 9 1017.9
20260510010034 73 0 0.0 4.0 0.00 0.00 0.00 9 1017.9
20260510004535 73 0 0.0 7.0 0.00 0.00 0.00 9 1017.8
20260510003046 75 101 0.0 3.0 0.00 0.00 0.00 8 1017.7
20260510001540 76 0 0.0 9.0 0.00 0.00 0.00 8 1017.6
20260510000037 76 0 0.0 11.0 0.00 0.00 0.00 8 1017.6
20260509234539 76 0 0.0 7.0 0.00 0.00 0.00 8 1017.5
20260509233036 77 0 1.0 8.0 0.00 0.00 0.00 8 1017.4
20260509231551 79 0 0.0 10.0 0.00 0.00 0.00 7 1017.4
20260509230041 77 0 0.0 11.0 0.00 0.00 0.00 8 1017.5
20260509224537 77 0 1.0 8.0 0.00 0.00 0.00 7 1017.3
20260509223035 79 0 0.0 10.0 0.00 0.00 0.00 7 1017.6
20260509221541 80 102 1.0 11.0 0.00 0.00 0.00 7 1017.9